Albany, OH

2:43 PM EST on January 18, 2017 (GMT -0500)
Ohio University

Weather History for KUNI - April, 2014

Change the Weather History Date:

Friday, April 25, 2014

  Actual Average (KLHQ) Record (KLHQ)
Temperature  
Mean Temperature 53 °F -  
Max Temperature 63 °F 62 °F 87 °F (1948)
Min Temperature 43 °F 39 °F 26 °F (1974)
Degree Days  
Heating Degree Days 12    
Growing Degree Days 3 (Base 50)    
Moisture  
Dew Point 44 °F    
Average Humidity 76    
Maximum Humidity 94    
Minimum Humidity 34    
Precipitation  
Precipitation 0.00 in - - ()
Sea Level Pressure  
Sea Level Pressure 29.78 in    
Wind  
Wind Speed 4 mph (SW)    
Max Wind Speed 17 mph    
Max Gust Speed 32 mph    
Visibility 9 miles    
Events Rain , Thunderstorm    
Averages and records for this station are not official NWS values.
T = Trace of Precipitation, MM = Missing Value Source: NWS Daily Summary

Daily Weather History Graph

Daily Weather History Graph

Search for Another Location

Airport or City:

Trip Planner

Search our weather history database for the weather conditions in past years. The results will help you decide how hot, cold, wet, or windy it might be!

Date:

Astronomy

Apr. 25, 2014 Rise Set
Actual Time 6:38 AM EDT 8:16 PM EDT
Civil Twilight 6:09 AM EDT 8:44 PM EDT
Nautical Twilight 5:35 AM EDT 9:19 PM EDT
Astronomical Twilight 4:59 AM EDT 9:55 PM EDT
Moon 4:23 AM EDT (4/25) 4:38 PM EDT (4/25)
Length of Visible Light 14h 35m
Length of Day
13h 38m
Waning Crescent, 15% of the Moon is Illuminated
Apr 25
Waning Crescent
Apr 29
New
May 6
First Quarter
May 14
Full
May 21
Last Quarter

Hourly Weather History & Observations

Time (EDT) Temp. Dew Point Humidity Pressure Visibility Wind Dir Wind Speed Gust Speed Precip Events Conditions
12:15 AM 53.1 °F 25.0 °F 34% 29.85 in 10.0 mi NE 3.5 mph - N/A   Clear
12:35 AM 50.5 °F 27.3 °F 41% 29.84 in 10.0 mi Calm Calm - N/A   Clear
1:15 AM 46.9 °F 30.7 °F 53% 29.82 in 10.0 mi Calm Calm - N/A   Clear
1:35 AM 45.7 °F 33.1 °F 61% 29.82 in 10.0 mi Calm Calm - N/A   Clear
1:55 AM 43.9 °F 33.1 °F 66% 29.82 in 10.0 mi Calm Calm - N/A   Clear
2:15 AM 43.9 °F 34.0 °F 68% 29.81 in 10.0 mi Calm Calm - N/A   Clear
2:35 AM 43.3 °F 34.0 °F 70% 29.80 in 10.0 mi Calm Calm - N/A   Clear
2:55 AM 43.5 °F 31.6 °F 63% 29.79 in 10.0 mi Calm Calm - N/A   Clear
3:15 AM 43.0 °F 34.2 °F 71% 29.78 in 10.0 mi Calm Calm - N/A   Clear
3:35 AM 43.0 °F 33.8 °F 70% 29.77 in 10.0 mi Calm Calm - N/A   Clear
3:55 AM 43.7 °F 33.3 °F 67% 29.76 in 10.0 mi Calm Calm - N/A   Clear
4:15 AM 43.7 °F 34.0 °F 69% 29.75 in 10.0 mi Calm Calm - N/A   Clear
4:35 AM 43.7 °F 34.0 °F 69% 29.74 in 10.0 mi Calm Calm - N/A   Clear
4:55 AM 43.0 °F 35.6 °F 75% 29.73 in 10.0 mi Calm Calm - N/A   Clear
5:15 AM 43.9 °F 35.4 °F 72% 29.72 in 10.0 mi Calm Calm - N/A   Scattered Clouds
5:55 AM 45.7 °F 37.6 °F 73% 29.71 in 7.0 mi Calm Calm - N/A Rain Light Rain
6:15 AM 45.5 °F 40.5 °F 83% 29.71 in 10.0 mi Calm Calm - N/A Thunderstorm Overcast
6:35 AM 47.1 °F 41.7 °F 81% 29.71 in 10.0 mi West 4.6 mph - N/A   Overcast
6:55 AM 47.3 °F 38.8 °F 72% 29.72 in 10.0 mi West 5.8 mph - N/A   Mostly Cloudy
7:15 AM 47.7 °F 39.0 °F 72% 29.72 in 10.0 mi Calm Calm - N/A   Overcast
7:35 AM 48.2 °F 40.5 °F 75% 29.74 in 10.0 mi West 5.8 mph - N/A   Overcast
7:55 AM 50.7 °F 40.5 °F 68% 29.75 in 10.0 mi SW 4.6 mph - N/A Rain Rain
8:15 AM 50.2 °F 43.0 °F 76% 29.75 in 7.0 mi SSW 4.6 mph - N/A Rain Rain
8:35 AM 50.7 °F 45.9 °F 83% 29.75 in 5.0 mi SSW 4.6 mph - N/A Rain Rain
8:55 AM 50.4 °F 47.3 °F 89% 29.75 in 7.0 mi South 5.8 mph - N/A Rain Rain
9:15 AM 50.0 °F 47.1 °F 90% 29.74 in 5.0 mi SSE 6.9 mph - N/A Rain Rain
9:35 AM 50.0 °F 47.8 °F 92% 29.73 in 4.0 mi SSE 6.9 mph - N/A Rain Rain
9:55 AM 51.8 °F 50.0 °F 94% 29.72 in 7.0 mi SSE 4.6 mph - N/A Rain Light Rain
10:15 AM 52.3 °F 50.4 °F 93% 29.72 in 7.0 mi South 6.9 mph - N/A Rain Rain
10:35 AM 53.6 °F 51.6 °F 93% 29.72 in 7.0 mi South 10.4 mph - N/A Rain Rain
10:55 AM 54.3 °F 52.2 °F 92% 29.71 in 7.0 mi South 9.2 mph 17.3 mph N/A Rain Light Rain
11:15 AM 55.2 °F 53.1 °F 92% 29.70 in 7.0 mi SSE 9.2 mph - N/A Rain Light Rain
11:35 AM 55.4 °F 52.9 °F 91% 29.69 in 10.0 mi SSE 6.9 mph 16.1 mph N/A   Light Drizzle
11:50 AM 55.8 °F 53.6 °F 92% 29.68 in 10.0 mi South 5.8 mph - N/A   Mostly Cloudy
12:15 PM 55.9 °F 53.2 °F 91% 29.69 in 10.0 mi South 8.1 mph - N/A   Overcast
12:35 PM 56.7 °F 54.0 °F 91% 29.69 in 10.0 mi South 4.6 mph - N/A   Overcast
12:55 PM 58.5 °F 54.5 °F 87% 29.69 in 10.0 mi South 6.9 mph - N/A   Overcast
1:15 PM 60.1 °F 55.2 °F 84% 29.68 in 10.0 mi SSW 6.9 mph - N/A   Overcast
1:35 PM 61.0 °F 54.5 °F 79% 29.67 in 10.0 mi South 10.4 mph - N/A   Overcast
1:55 PM 60.6 °F 54.1 °F 79% 29.67 in 10.0 mi SSW 5.8 mph - N/A   Overcast
2:15 PM 59.9 °F 55.6 °F 86% 29.68 in 10.0 mi SW 3.5 mph - N/A Rain Light Rain
2:35 PM 60.3 °F 56.3 °F 87% 29.68 in 10.0 mi South 5.8 mph - N/A Rain Rain
2:55 PM 61.2 °F 57.0 °F 86% 29.68 in 10.0 mi South 8.1 mph - N/A Rain Light Rain
3:15 PM 63.3 °F 57.0 °F 80% 29.68 in 10.0 mi SW 13.8 mph - N/A   Mostly Cloudy
3:55 PM 59.0 °F 54.0 °F 83% 29.72 in 10.0 mi West 12.7 mph 28.8 mph N/A   Overcast
4:15 PM 59.0 °F 52.9 °F 80% 29.73 in 10.0 mi WNW 17.3 mph 32.2 mph N/A   Overcast
4:35 PM 59.7 °F 52.7 °F 78% 29.74 in 10.0 mi West 15.0 mph 21.9 mph N/A   Overcast
4:55 PM 59.9 °F 50.9 °F 72% 29.76 in 10.0 mi WNW 13.8 mph 21.9 mph N/A   Overcast
5:15 PM 59.9 °F 50.5 °F 71% 29.77 in 10.0 mi WNW 15.0 mph 23.0 mph N/A   Overcast
5:35 PM 59.9 °F 50.5 °F 71% 29.78 in 10.0 mi WNW 13.8 mph 19.6 mph N/A   Overcast
5:55 PM 59.7 °F 49.8 °F 70% 29.79 in 10.0 mi WNW 10.4 mph - N/A   Overcast
6:15 PM 59.0 °F 49.5 °F 71% 29.81 in 10.0 mi West 17.3 mph 23.0 mph N/A   Overcast
6:35 PM 59.5 °F 47.3 °F 64% 29.82 in 10.0 mi WNW 15.0 mph 29.9 mph N/A   Scattered Clouds
6:55 PM 58.6 °F 45.3 °F 61% 29.83 in 10.0 mi WNW 12.7 mph 21.9 mph N/A   Scattered Clouds
7:15 PM 58.5 °F 43.0 °F 56% 29.84 in 10.0 mi West 15.0 mph 28.8 mph N/A   Clear
7:35 PM 57.7 °F 43.0 °F 58% 29.85 in 10.0 mi WNW 13.8 mph 19.6 mph N/A   Clear
7:55 PM 57.2 °F 43.5 °F 60% 29.86 in 10.0 mi WNW 8.1 mph - N/A   Clear
8:15 PM 56.3 °F 43.7 °F 63% 29.87 in 10.0 mi WNW 4.6 mph - N/A   Clear
8:35 PM 54.5 °F 43.7 °F 67% 29.88 in 10.0 mi West 3.5 mph - N/A   Clear
8:55 PM 50.9 °F 43.2 °F 75% 29.89 in 10.0 mi West 3.5 mph - N/A   Clear
9:15 PM 50.4 °F 43.3 °F 77% 29.91 in 10.0 mi West 4.6 mph - N/A   Clear
9:35 PM 49.3 °F 43.3 °F 80% 29.91 in 10.0 mi WSW 3.5 mph - N/A   Clear
9:55 PM 49.1 °F 42.8 °F 79% 29.92 in 10.0 mi Calm Calm - N/A   Clear
10:15 PM 47.3 °F 42.8 °F 84% 29.93 in 10.0 mi Calm Calm - N/A   Clear
10:35 PM 46.2 °F 43.0 °F 88% 29.93 in 10.0 mi Calm Calm - N/A   Clear
10:55 PM 45.7 °F 42.6 °F 89% 29.94 in 10.0 mi Calm Calm - N/A   Clear
11:15 PM 45.5 °F 42.6 °F 90% 29.94 in 10.0 mi Calm Calm - N/A   Clear
11:35 PM 43.9 °F 41.4 °F 91% 29.94 in 10.0 mi Calm Calm - N/A   Clear
11:55 PM 43.5 °F 41.2 °F 91% 29.94 in 10.0 mi Calm Calm - N/A   Clear